Franklin, PA

4:42 PM EST on November 22, 2019 (GMT -0500)
Venango Regional

Weather History for KFKL - September, 2019

Change the Weather History Date:

Thursday, September 5, 2019

  Actual Average Record
Temperature  
Mean Temperature 60 °F -  
Max Temperature 73 °F 78 °F 96 °F (1954)
Min Temperature 48 °F 54 °F 37 °F (1962)
Degree Days  
Heating Degree Days 5    
Growing Degree Days 10 (Base 50)    
Moisture  
Dew Point 51 °F    
Average Humidity 88    
Maximum Humidity 100    
Minimum Humidity 51    
Precipitation  
Precipitation 0.00 in - - ()
Sea Level Pressure  
Sea Level Pressure 30.13 in    
Wind  
Wind Speed 1 mph (NNE)    
Max Wind Speed 7 mph    
Max Gust Speed -    
Visibility 5 miles    
Events Fog    
Averages and records for this station are not official NWS values.
T = Trace of Precipitation, MM = Missing Value Source: NWS Daily Summary

Daily Weather History Graph

Daily Weather History Graph

Search for Another Location

Airport or City:

Astronomy

Sep. 05, 2019 Rise Set
Actual Time 6:49 AM EDT 7:46 PM EDT
Civil Twilight 6:21 AM EDT 8:14 PM EDT
Nautical Twilight 5:47 AM EDT 8:47 PM EDT
Astronomical Twilight 5:12 AM EDT 9:22 PM EDT
Moon 1:59 PM EDT (9/5) 11:55 PM EDT (9/5)
Length of Visible Light 13h 52m
Length of Day
12h 56m
Waxing Crescent, 45% of the Moon is Illuminated
Sep 5
Waxing Crescent
Sep 5
First Quarter
Sep 14
Full
Sep 21
Last Quarter
Sep 28
New

Hourly Weather History & Observations

Time (EDT) Temp. Dew Point Humidity Pressure Visibility Wind Dir Wind Speed Gust Speed Precip Events Conditions
12:56 AM 53.1 °F 52.0 °F 96% 30.13 in 10.0 mi Calm Calm - N/A   Clear
1:56 AM 53.1 °F 52.0 °F 96% 30.12 in 10.0 mi Calm Calm - N/A   Clear
2:23 AM 51.8 °F 51.8 °F 100% 30.12 in 1.2 mi Calm Calm - N/A   Clear
2:34 AM 53.6 °F 51.8 °F 94% 30.12 in 2.5 mi NNE 3.5 mph - N/A   Clear
2:41 AM 53.6 °F 51.8 °F 94% 30.12 in 10.0 mi Calm Calm - N/A   Clear
2:56 AM 52.0 °F 51.1 °F 97% 30.12 in 5.0 mi North 3.5 mph - N/A   Clear
3:05 AM 51.8 °F 50.0 °F 94% 30.12 in 1.8 mi North 4.6 mph - N/A   Clear
3:18 AM 50.0 °F 50.0 °F 100% 30.11 in 3.0 mi Calm Calm - N/A   Clear
3:33 AM 51.8 °F 50.0 °F 94% 30.12 in 2.5 mi Calm Calm - N/A   Clear
3:56 AM 51.1 °F 51.1 °F 100% 30.12 in 10.0 mi Calm Calm - N/A   Clear
4:07 AM 51.8 °F 50.0 °F 94% 30.13 in 1.2 mi Calm Calm - N/A   Clear
4:22 AM 51.8 °F 51.8 °F 100% 30.13 in 3.0 mi Calm Calm - N/A   Clear
4:56 AM 51.1 °F 50.0 °F 96% 30.13 in 3.0 mi Calm Calm - N/A   Clear
5:09 AM 51.8 °F 50.0 °F 94% 30.14 in 1.5 mi Calm Calm - N/A   Clear
5:24 AM 50.0 °F 48.2 °F 94% 30.14 in 3.0 mi Calm Calm - N/A   Clear
5:27 AM 50.0 °F 48.2 °F 94% 30.14 in 1.8 mi Calm Calm - N/A   Clear
5:35 AM 50.0 °F 50.0 °F 100% 30.14 in 3.0 mi Calm Calm - N/A   Clear
5:40 AM 48.2 °F 48.2 °F 100% 30.14 in 1.0 mi Calm Calm - N/A   Mist
5:43 AM 48.2 °F 48.2 °F 100% 30.14 in 0.5 mi Calm Calm - N/A Fog Fog
5:56 AM 50.0 °F 48.9 °F 96% 30.14 in 0.8 mi Calm Calm - N/A   Mist
6:01 AM 50.0 °F 48.2 °F 94% 30.14 in 1.2 mi Calm Calm - N/A   Partly Cloudy
6:17 AM 48.2 °F 46.4 °F 93% 30.15 in 0.8 mi Calm Calm - N/A   Mist
6:26 AM 48.2 °F 48.2 °F 100% 30.14 in 0.5 mi Calm Calm - N/A Fog Fog
6:32 AM 48.2 °F 48.2 °F 100% 30.15 in 1.0 mi Calm Calm - N/A   Mist
6:44 AM 48.2 °F 48.2 °F 100% 30.15 in 1.5 mi Calm Calm - N/A   Scattered Clouds
6:46 AM 48.2 °F 48.2 °F 100% 30.15 in 3.0 mi Calm Calm - N/A   Scattered Clouds
6:56 AM 48.9 °F 48.0 °F 97% 30.16 in 10.0 mi Calm Calm - N/A   Scattered Clouds
7:00 AM 48.2 °F 48.2 °F 100% 30.15 in 0.8 mi Calm Calm - N/A   Mist
7:02 AM 48.2 °F 48.2 °F 100% 30.15 in 0.2 mi Calm Calm - N/A Fog Fog
7:10 AM 48.2 °F 48.2 °F 100% 30.15 in 0.2 mi Calm Calm - N/A Fog Fog
7:31 AM 48.2 °F 48.2 °F 100% 30.15 in 0.8 mi Calm Calm - N/A   Overcast
7:33 AM 48.2 °F 48.2 °F 100% 30.15 in 1.2 mi Calm Calm - N/A   Overcast
7:40 AM 48.2 °F 48.2 °F 100% 30.15 in 0.8 mi North 3.5 mph - N/A   Overcast
7:47 AM 50.0 °F 48.2 °F 94% 30.15 in 0.2 mi North 4.6 mph - N/A Fog Fog
7:56 AM 48.9 °F 48.9 °F 100% 30.16 in 0.2 mi North 4.6 mph - N/A Fog Fog
8:14 AM 51.8 °F 51.8 °F 100% 30.16 in 0.8 mi North 4.6 mph - N/A   Mostly Cloudy
8:17 AM 51.8 °F 51.8 °F 100% 30.16 in 1.2 mi North 3.5 mph - N/A   Mostly Cloudy
8:20 AM 51.8 °F 51.8 °F 100% 30.16 in 4.0 mi NNE 3.5 mph - N/A   Mostly Cloudy
8:30 AM 51.8 °F 51.8 °F 100% 30.16 in 10.0 mi North 4.6 mph - N/A   Scattered Clouds
8:56 AM 55.0 °F 54.0 °F 96% 30.18 in 10.0 mi NE 3.5 mph - N/A   Clear
9:56 AM 59.0 °F 55.0 °F 87% 30.19 in 10.0 mi Variable 6.9 mph - N/A   Clear
10:56 AM 64.0 °F 53.1 °F 67% 30.17 in 10.0 mi NE 4.6 mph - N/A   Scattered Clouds
11:07 AM 64.4 °F 51.8 °F 64% 30.16 in 10.0 mi Variable 4.6 mph - N/A   Mostly Cloudy
11:48 AM 64.4 °F 51.8 °F 64% 30.16 in 10.0 mi Calm Calm - N/A   Scattered Clouds
11:56 AM 64.9 °F 53.1 °F 65% 30.16 in 10.0 mi Variable 4.6 mph - N/A   Mostly Cloudy
12:20 PM 66.2 °F 53.6 °F 64% 30.15 in 10.0 mi Calm Calm - N/A   Mostly Cloudy
12:56 PM 66.9 °F 53.1 °F 61% 30.14 in 10.0 mi ESE 4.6 mph - N/A   Mostly Cloudy
1:56 PM 70.0 °F 53.1 °F 55% 30.12 in 10.0 mi East 4.6 mph - N/A   Partly Cloudy
2:56 PM 70.0 °F 52.0 °F 53% 30.10 in 10.0 mi Variable 4.6 mph - N/A   Partly Cloudy
3:56 PM 72.0 °F 54.0 °F 53% 30.09 in 10.0 mi WNW 4.6 mph - N/A   Clear
4:56 PM 72.0 °F 53.1 °F 51% 30.09 in 10.0 mi NNW 3.5 mph - N/A   Clear
5:56 PM 71.1 °F 53.1 °F 53% - 10.0 mi North 3.5 mph - N/A   Partly Cloudy
6:56 PM 71.1 °F 53.1 °F 53% 30.07 in 10.0 mi Calm Calm - N/A   Clear
7:56 PM 64.9 °F 54.0 °F 68% 30.08 in 10.0 mi North 3.5 mph - N/A   Clear
8:56 PM 61.0 °F 55.9 °F 83% 30.08 in 10.0 mi North 4.6 mph - N/A   Clear
9:56 PM 57.9 °F 55.0 °F 90% 30.08 in 10.0 mi NNE 6.9 mph - N/A   Clear
10:56 PM 55.9 °F 53.1 °F 90% 30.07 in 10.0 mi North 4.6 mph - N/A   Clear
11:56 PM 55.0 °F 53.1 °F 93% 30.05 in 10.0 mi North 4.6 mph - N/A   Clear